N1NAZ-1 Weather Reports


time (UTC)temp
F
wind
direction
speed
knots
gust
knots
rain 1hr
in
rain 24hr
in
rain mn
in
humidity
%
barometer
mb
20260504223000 72 220 1.7 14.8 0.00 0.00 0.00 35 1005.1
20260504220000 72 241 2.6 11.3 0.00 0.00 0.00 35 1005.2
20260504212945 73 236 2.6 11.3 0.00 0.00 0.00 35 1005.2
20260504211344 73 232 2.6 13.9 0.00 0.00 0.00 36 1005.2
20260504204329 73 40 2.6 11.3 0.00 0.00 0.00 33 1005.2
20260504195915 71 147 1.7 12.2 0.00 0.00 0.00 34 1005.2
20260504192913 69 243 3.5 12.2 0.00 0.00 0.00 36 1005.5
20260504191313 70 272 2.6 7.8 0.00 0.00 0.00 34 1005.6
20260504182852 72 248 4.3 18.2 0.00 0.00 0.00 35 1005.7
20260504182619 71 252 4.3 17.4 0.00 0.00 0.00 32 1005.9
20260504175634 71 239 3.5 16.5 0.00 0.00 0.00 35 1006.1
20260504045529 32 283 0.0 0.0 0.00 0.03 0.00 88 1009.5
20260504042504 31 283 0.0 0.0 0.00 0.03 0.00 86 1009.4
20260504035509 32 283 0.0 0.0 0.00 0.03 0.03 85 1009.2
20260504032455 33 283 0.0 0.0 0.00 0.03 0.03 83 1009.1
20260504025456 34 283 0.0 0.0 0.00 0.03 0.03 81 1009.1
20260504022450 35 283 0.0 0.0 0.00 0.03 0.03 78 1009.0
20260504015454 37 283 0.0 0.0 0.00 0.03 0.03 75 1008.7
20260504012435 40 283 0.0 0.0 0.00 0.03 0.03 72 1008.6
20260504005433 42 283 0.0 0.0 0.00 0.03 0.03 67 1008.2
20260504002426 45 283 0.0 0.9 0.00 0.03 0.03 62 1007.8
20260503235426 49 283 0.9 7.0 0.00 0.03 0.03 50 1007.5
20260503232423 50 293 1.7 10.4 0.00 0.05 0.03 46 1007.2
20260503225418 51 261 3.5 12.2 0.00 0.05 0.03 45 1006.9